Regional Weather Roundup
Issued by NWS

Home | Current Version | Previous Version | Graphics & Text | Print | Product List | Glossary On
Versions: 1 2 3 4 5 6 7 8 9 10 11 12 13 14 15 16 17 18 19 20 21 22 23 24 25 26 27
000
ASUS45 KCYS 270310
RWRWY

WYOMING REGIONAL WEATHER ROUNDUP
NATIONAL WEATHER SERVICE CHEYENNE WY
900 PM MDT MON SEP 26 2016

NOTE:  "FAIR" INDICATES FEW OR NO CLOUDS BELOW 12,000 FEET
WITH NO SIGNIFICANT WEATHER AND/OR OBSTRUCTIONS TO VISIBILITY.

WYZ001-270400-
YELLOWSTONE NATIONAL PARK

CITY           SKY/WX    TMP DP  RH WIND       PRES   REMARKS
LK YELLOWSTONE   N/A     41  38  89 CALM      30.47S
W YELLOWSTONE  NOT AVBL

$$
WYZ002>013-054>058-071-098>099-270400-
NORTHERN WYOMING

CITY           SKY/WX    TMP DP  RH WIND       PRES   REMARKS
JACKSON        NOT AVBL
CODY           FAIR      55  46  71 SE5       30.29F
GREYBULL       FAIR      59  49  69 E5        30.24S
WORLAND        FAIR      53  46  77 SE3       30.25S
SHERIDAN       FAIR      52  47  83 S3        30.21F
BUFFALO        FAIR      57  44  62 SW6       30.28F
GILLETTE       FAIR      49  46  90 SW7       30.24F
HULETT         FAIR      50  43  76 S8        30.24F
NEWCASTLE      FAIR      52  41  66 N7        30.25F

$$
WYZ014>020-022>026-101>103-270400-
CENTRAL WYOMING

CITY           SKY/WX    TMP DP  RH WIND       PRES   REMARKS
BIG PINEY      FAIR      54  39  57 NE5       30.41R
PINEDALE       FAIR      52  36  54 E8        30.43R
DUBOIS         FAIR      52  39  62 SW6       30.42R
LANDER         FAIR      56  45  66 E5        30.33R
RIVERTON       FAIR      58  42  55 E5        30.34R
CASPER         FAIR      50  44  80 NW9       30.32R
DOUGLAS        FAIR      54  41  61 NW5       30.31S

$$
WYZ021-027>030-104>119-270400-
SOUTHERN WYOMING

CITY           SKY/WX    TMP DP  RH WIND       PRES   REMARKS
EVANSTON       FAIR      60  34  37 N6        30.40S
FORT BRIDGER   FAIR      58  36  44 S3        30.43S
ROCK SPRINGS   FAIR      56  39  53 SE5       30.40R
DIXON          FAIR      51  39  63 E9        30.42R
RAWLINS        FAIR      51  38  60 CALM      30.40S
SARATOGA       FAIR      46  34  61 S7        30.42S
LARAMIE        FAIR      51  37  58 NE5       30.42R
CHEYENNE       FAIR      56  38  50 NE5       30.38R
TORRINGTON     FAIR      56  41  57 NE3       30.26R
PINE BLUFFS    FAIR      46  36  66 W8        30.34R

$$




USA.gov is the U.S. government's official web portal to all federal, state and local government web resources and services.